Simultaneous Nadir Overpasses (SNOs) Predictions

Prediction of SNOs between NPP and TERRA Satellite Orbit:

Table of predicted SNOs for the next 14.0 days since TLE Epoch: 9/19/2015
Index Date (NPP) Time (NPP) Lat,Lon (NPP) SZA (NPP ) Date (TERRA) Time (TERRA) Lat,Lon (TERRA) SZA (TERRA ) Distance(km) Time Diff (sec)
1 09/21/2015 09:00:59 68.72, 43.84 67.84 09/21/2015 09:01:47 68.75, 43.83 67.87 3.28 48
2 09/21/2015 09:51:40 -68.60,-148.68 112.27 09/21/2015 09:51:18 -68.58,-148.75 112.30 3.41 22
3 09/21/2015 10:42:07 67.54, 19.95 66.70 09/21/2015 10:41:00 67.63, 17.78 66.77 92.64 67
4 09/24/2015 00:27:24 -69.77, -9.17 110.08 09/24/2015 00:28:30 -69.69, -6.69 110.15 96.06 66
5 09/24/2015 01:17:50 68.68, 159.66 68.85 09/24/2015 01:18:13 68.69, 159.66 68.86 0.96 23
6 09/24/2015 02:08:31 -68.56, -32.86 111.27 09/24/2015 02:07:43 -68.58, -32.85 111.25 2.33 48
7 09/26/2015 16:43:58 -68.89, 107.86 109.92 09/26/2015 16:45:09 -68.85, 108.11 109.95 10.91 71
8 09/26/2015 17:34:40 68.65, -84.52 69.86 09/26/2015 17:34:38 68.63, -84.52 69.84 2.52 2
9 09/26/2015 18:25:21 -68.52, 82.97 110.25 09/26/2015 18:24:08 -68.52, 82.98 110.26 0.62 73
10 09/29/2015 09:00:47 -68.75,-136.18 109.01 09/29/2015 09:01:36 -68.73,-136.15 109.03 2.34 49
11 09/29/2015 09:51:31 68.62, 31.30 70.88 09/29/2015 09:51:03 68.61, 31.35 70.87 2.41 28
12 09/29/2015 10:41:56 -67.63,-160.13 110.09 09/29/2015 10:40:48 -67.67,-162.13 110.08 84.46 68
13 10/02/2015 00:27:11 69.60, 171.10
